User: anonymous   Login
Location: Unspecified
(0.0000°N, 0.0000°E)
Time: 12:55:06
(UTC+01:00)
Language:

Cosmos 1943 Rocket - Orbit

View from above orbital plane
View from above orbital plane
View from above satellite
View from above satellite

Ground track
Ground track

The orbit data is extracted from the following two-line orbital elements,

1 19120U 88039B   17019.36858523 -.00000120  00000-0 -34124-4 0  9992
2 19120  71.0152 279.3669 0019966  52.6028 307.6910 14.19164940485278
Epoch (UTC): 19 January 2017 08:50:45
Eccentricity: 0.0019966
inclination: 71.0152°
perigee height: 814 km
apogee height: 842 km
right ascension of ascending node: 279.3669°
argument of perigee: 52.6028°
revolutions per day: 14.19164940
mean anomaly at epoch: 307.6910°
orbit number at epoch: 48527

The dashed part of the orbit path shows where the satellite is in the earth's shadow,  

DLR